Double Island Point Observation History
Time Wind Speed Temp Pressure Rel. Hum Rain
05/09:50pm SSE 22-31 kts 17.1°c 1025.1 hPa 95% 0.6mm
05/09:44pm SE 15-28 kts 17.9°c 1025.3 hPa 87% 0.0mm
05/09:30pm SE 13-15 kts 18.4°c 1025.4 hPa 80% 0.0mm
05/09:00pm SSE 17-20 kts 18.4°c 1025.3 hPa 78% 0.0mm
05/08:30pm SE 15-19 kts 18.3°c 1025.4 hPa 80% 0.0mm
05/08:00pm SSE 15-19 kts 18.1°c 1025.4 hPa 84% 0.0mm
05/07:30pm ESE 13-16 kts 18.1°c 1025.4 hPa 86% 0.0mm
05/07:00pm SE 14-19 kts 18.2°c 1025.2 hPa 83% 0.0mm
05/06:30pm ESE 17-21 kts 18.0°c 1024.8 hPa 86% 0.0mm
05/06:00pm SSE 17-20 kts 18.0°c 1024.4 hPa 83% 0.0mm
05/05:30pm SSE 18-20 kts 17.8°c 1024.2 hPa 87% 0.0mm
05/05:00pm SSW 13-15 kts 16.9°c 1024.1 hPa 90% 0.0mm
05/04:30pm S 13-17 kts 17.6°c 1024.0 hPa 84% 0.0mm
05/04:00pm S 12-18 kts 17.6°c 1024.0 hPa 89% 0.0mm
05/03:30pm S 17-23 kts 17.7°c 1023.8 hPa 85% 0.0mm
05/03:00pm S 17-20 kts 18.2°c 1024.0 hPa 81% 0.0mm
05/02:30pm S 19-23 kts 18.3°c 1024.0 hPa 83% 0.0mm
05/02:00pm S 19-24 kts 18.2°c 1024.2 hPa 85% 0.0mm
05/01:30pm S 19-24 kts 17.9°c 1024.6 hPa 90% 0.0mm
05/01:00pm S 21-27 kts 18.1°c 1024.7 hPa 87% 0.0mm
05/12:30pm S 21-29 kts 18.3°c 1024.9 hPa 84% 0.0mm
05/12:00pm S 21-27 kts 18.0°c 1025.5 hPa 87% 0.0mm
05/11:30am S 22-28 kts 17.2°c 1025.9 hPa 87% 0.0mm
05/11:00am S 22-28 kts 17.1°c 1026.3 hPa 94% 0.0mm
05/10:30am S 23-29 kts 17.3°c 1026.3 hPa 95% 0.0mm
05/10:00am S 23-28 kts 17.1°c 1026.5 hPa 95% 0.0mm
05/09:30am S 23-29 kts 17.0°c 1026.4 hPa 96% 0.0mm
05/09:00am S 24-30 kts 16.8°c 1026.3 hPa 98% 5.4mm
05/08:30am S 25-30 kts 16.6°c 1026.1 hPa 99% 5.4mm
05/08:00am SSE 23-29 kts 16.6°c 1025.8 hPa 99% 5.4mm
05/07:30am SSE 24-29 kts 16.6°c 1025.5 hPa 98% 5.4mm
05/07:00am SSE 25-30 kts 16.4°c 1025.5 hPa 99% 5.0mm
05/06:30am SSE 25-30 kts 17.0°c 1025.4 hPa 99% 4.2mm
05/06:00am SSE 26-33 kts 16.2°c 1024.9 hPa 97% 4.2mm
05/05:34am SSE 25-35 kts 17.0°c 1024.7 hPa 99% 4.2mm
05/05:30am SSE 25-31 kts 16.7°c 1024.6 hPa 99% 4.2mm
05/05:00am SSE 25-32 kts 16.0°c 1024.4 hPa 99% 4.0mm
05/04:50am SSE 23-33 kts 16.0°c 1024.1 hPa 99% 4.0mm
05/04:30am S 23-30 kts 16.0°c 1024.2 hPa 96% 3.2mm
05/04:00am S 25-31 kts 16.2°c 1024.2 hPa 92% 3.0mm
05/03:30am SSE 30-36 kts 16.2°c 1024.1 hPa 90% 2.8mm
05/03:00am SSE 27-33 kts 16.4°c 1024.1 hPa 93% 2.8mm
05/02:30am S 26-32 kts 17.0°c 1024.3 hPa 87% 2.8mm
05/02:00am SSE 26-31 kts 17.3°c 1024.5 hPa 92% 2.8mm
05/01:43am SSE 23-36 kts 16.5°c 1024.7 hPa 99% 2.6mm
05/01:30am SSE 25-30 kts 16.6°c 1025.1 hPa 98% 1.8mm
05/01:00am SSE 26-33 kts 16.8°c 1025.4 hPa 92% 1.0mm
05/12:30am SSE 28-35 kts 17.7°c 1025.4 hPa 86% 1.0mm
05/12:00am SSE 24-30 kts 18.1°c 1025.9 hPa 81% 1.0mm
Time Wind Speed Temp Pressure Rel. Hum Rain
04/11:30pm SSE 25-30 kts 17.9°c 1026.2 hPa 81% 1.0mm
04/11:00pm SSE 27-35 kts 18.5°c 1026.1 hPa 80% 1.0mm
04/10:30pm SSE 23-30 kts 18.4°c 1026.4 hPa 79% 1.0mm
04/10:22pm SSE 22-32 kts 18.4°c 1026.6 hPa 78% 1.0mm
04/10:00pm SSE 24-32 kts 18.1°c 1026.6 hPa 76% 1.0mm
04/09:30pm SSE 27-32 kts 18.7°c 1026.4 hPa 71% 1.0mm
04/09:00pm SE 25-29 kts 19.2°c 1026.4 hPa 57% 1.0mm
04/08:30pm SSE 24-29 kts 18.9°c 1026.3 hPa 74% 1.0mm
04/08:00pm S 25-31 kts 17.9°c 1026.4 hPa 81% 1.0mm
04/07:30pm SSE 28-33 kts 18.3°c 1026.2 hPa 75% 1.0mm
04/07:00pm SSE 30-35 kts 18.4°c 1025.9 hPa 74% 1.0mm
04/06:30pm SSE 31-36 kts 18.5°c 1025.5 hPa 70% 1.0mm
04/06:00pm SSE 32-38 kts 18.4°c 1025.4 hPa 71% 1.0mm
04/05:30pm SSE 33-38 kts 18.3°c 1024.8 hPa 76% 1.0mm
04/05:00pm SSE 30-37 kts 17.7°c 1024.9 hPa 85% 1.0mm
04/04:30pm SE 27-33 kts 16.5°c 1025.1 hPa 97% 0.8mm
04/04:09pm SE 29-34 kts 16.3°c 1025.0 hPa 86% 0.0mm
04/04:00pm SSE 28-36 kts 18.2°c 1024.7 hPa 76% 0.0mm
04/03:43pm SSE 26-36 kts 17.8°c 1025.0 hPa 80% 0.0mm
04/03:30pm SSE 31-36 kts 18.2°c 1024.7 hPa 79% 0.0mm
04/03:00pm SSE 29-34 kts 18.3°c 1024.8 hPa 74% 0.0mm
04/02:30pm SSE 29-37 kts 18.4°c 1024.6 hPa 77% 0.0mm
04/02:00pm SSE 28-36 kts 18.2°c 1024.7 hPa 75% 0.0mm
04/01:30pm SSE 26-33 kts 17.6°c 1025.0 hPa 88% 0.0mm
04/01:00pm SSE 25-30 kts 18.0°c 1025.2 hPa 77% 0.0mm
04/12:45pm SSE 27-37 kts 17.7°c 1025.3 hPa 78% 0.0mm
04/12:30pm SSE 27-34 kts 18.4°c 1025.1 hPa 74% 0.0mm
04/12:00pm SSE 28-35 kts 18.2°c 1025.5 hPa 73% 0.0mm
04/11:30am SSE 27-36 kts 18.1°c 1025.7 hPa 72% 0.0mm
04/11:00am SSE 30-35 kts 17.7°c 1025.8 hPa 75% 0.0mm
04/10:34am SSE 29-39 kts 17.5°c 1025.7 hPa 76% 0.0mm
04/10:30am SSE 29-37 kts 17.5°c 1025.8 hPa 76% 0.0mm
04/10:00am SSE 30-38 kts 17.6°c 1025.3 hPa 72% 0.0mm
04/09:43am S 29-39 kts 17.4°c 1025.6 hPa 72% 0.0mm
04/09:30am S 27-34 kts 17.5°c 1025.6 hPa 73% 0.0mm
04/09:00am S 28-35 kts 17.5°c 1025.4 hPa 73% 0.0mm
04/08:30am SSE 31-38 kts 17.6°c 1025.0 hPa 70% 0.0mm
04/08:00am SSE 33-41 kts 18.0°c 1024.3 hPa 70% 0.0mm
04/07:30am SSE 32-38 kts 18.3°c 1024.3 hPa 73% 0.0mm
04/07:00am SSE 32-40 kts 18.3°c 1023.5 hPa 71% 0.0mm
04/06:30am S 30-38 kts 17.7°c 1023.5 hPa 79% 0.0mm
04/06:02am S 28-38 kts 17.5°c 1023.2 hPa 78% 0.0mm
04/06:00am S 28-36 kts 17.5°c 1023.1 hPa 77% 0.0mm
04/05:30am S 30-35 kts 17.8°c 1022.8 hPa 75% 0.0mm
04/05:00am S 27-33 kts 17.7°c 1022.6 hPa 76% 0.0mm
04/04:30am SSE 28-34 kts 18.0°c 1022.2 hPa 75% 0.0mm
04/04:00am SSE 27-34 kts 17.8°c 1022.2 hPa 77% 0.0mm
04/03:30am SSE 25-31 kts 17.9°c 1022.3 hPa 78% 0.0mm
04/03:00am S 24-29 kts 17.7°c 1022.3 hPa 79% 0.0mm
04/02:30am SSE 22-28 kts 18.1°c 1022.6 hPa 81% 0.0mm
04/02:00am S 22-29 kts 17.7°c 1022.7 hPa 82% 0.0mm
04/01:30am S 21-28 kts 17.7°c 1022.8 hPa 79% 0.0mm
04/01:00am SSE 22-29 kts 18.4°c 1023.1 hPa 72% 0.0mm
04/12:30am SE 25-31 kts 18.8°c 1023.1 hPa 64% 0.0mm
04/12:00am SE 27-31 kts 18.8°c 1023.1 hPa 62% 0.0mm
Time Wind Speed Temp Pressure Rel. Hum Rain
03/11:30pm SSE 23-27 kts 18.5°c 1023.2 hPa 68% 0.0mm
03/11:00pm SSE 26-31 kts 18.4°c 1023.4 hPa 62% 0.0mm
03/10:30pm SSE 23-27 kts 18.5°c 1023.5 hPa 65% 0.0mm
03/10:00pm SSE 21-25 kts 18.3°c 1023.5 hPa 64% 0.0mm
03/09:30pm SSE 20-23 kts 18.1°c 1023.6 hPa 64% 0.0mm
03/09:00pm SSE 18-23 kts 17.8°c 1023.4 hPa 59% 0.0mm
03/08:30pm SSE 18-23 kts 17.8°c 1023.3 hPa 63% 0.0mm
03/08:00pm SSE 17-21 kts 17.6°c 1022.7 hPa 60% 0.0mm
03/07:30pm SSE 15-20 kts 17.4°c 1022.6 hPa 59% 0.0mm
03/07:00pm SE 14-18 kts 17.3°c 1022.0 hPa 60% 0.0mm
03/06:30pm SSE 13-17 kts 17.1°c 1021.6 hPa 59% 0.0mm
03/06:00pm SSE 12-15 kts 16.8°c 1021.2 hPa 57% 0.0mm
03/05:30pm SSE 12-16 kts 16.8°c 1020.9 hPa 58% 0.0mm
03/05:00pm SE 14-16 kts 16.7°c 1020.6 hPa 60% 0.0mm
03/04:30pm SSE 13-16 kts 16.6°c 1020.3 hPa 57% 0.0mm
03/04:00pm SSE 12-15 kts 16.4°c 1020.0 hPa 57% 0.0mm
03/03:30pm SE 11-14 kts 16.7°c 1019.6 hPa 56% 0.0mm
03/03:00pm SE 11-14 kts 16.8°c 1019.6 hPa 55% 0.0mm
03/02:30pm SSE 13-16 kts 16.9°c 1019.4 hPa 52% 0.0mm
03/02:00pm SSE 12-15 kts 16.8°c 1019.4 hPa 52% 0.0mm
03/01:30pm SE 11-14 kts 17.0°c 1019.4 hPa 47% 0.0mm
03/01:00pm SSE 11-14 kts 17.2°c 1019.6 hPa 50% 0.0mm
03/12:30pm SE 11-15 kts 17.1°c 1019.7 hPa 51% 0.0mm
03/12:00pm SSE 9-12 kts 17.1°c 1020.4 hPa 49% 0.0mm
03/11:30am SSE 6-10 kts 17.1°c 1021.0 hPa 47% 0.0mm
03/11:00am S 7-11 kts 16.8°c 1021.2 hPa 43% 0.0mm
03/10:30am SE 3-5 kts 17.1°c 1021.7 hPa 45% 0.0mm
03/10:00am S 4-7 kts 16.6°c 1021.7 hPa 45% 0.0mm
03/09:30am SSW 3-5 kts 15.9°c 1021.6 hPa 46% 0.0mm
03/09:00am WSW 2-5 kts 14.7°c 1021.4 hPa 50% 0.0mm
03/08:30am SW 8-11 kts 13.4°c 1021.1 hPa 48% 0.0mm
03/08:00am WSW 10-13 kts 12.2°c 1020.8 hPa 51% 0.0mm
03/07:30am WSW 9-13 kts 11.4°c 1020.8 hPa 53% 0.0mm
03/07:00am WNW 7-9 kts 10.6°c 1020.7 hPa 60% 0.0mm
03/06:30am W 11-13 kts 10.5°c 1020.1 hPa 59% 0.0mm
03/06:00am W 8-11 kts 10.9°c 1020.1 hPa 57% 0.0mm
03/05:30am WSW 11-13 kts 11.2°c 1019.7 hPa 54% 0.0mm
03/05:00am WSW 12-14 kts 10.7°c 1019.3 hPa 54% 0.0mm
03/04:30am WSW 12-16 kts 10.9°c 1019.2 hPa 54% 0.0mm
03/04:00am WSW 12-18 kts 11.2°c 1019.3 hPa 53% 0.0mm
03/03:30am W 13-17 kts 11.5°c 1019.7 hPa 52% 0.0mm
03/03:00am W 11-16 kts 11.8°c 1020.1 hPa 50% 0.0mm
03/02:30am W 10-13 kts 11.9°c 1020.1 hPa 49% 0.0mm
03/02:00am W 11-16 kts 12.3°c 1020.3 hPa 49% 0.0mm
03/01:30am WSW 12-17 kts 12.6°c 1020.2 hPa 47% 0.0mm
03/01:00am W 12-19 kts 13.1°c 1020.7 hPa 43% 0.0mm
03/12:30am WSW 13-16 kts 13.5°c 1020.9 hPa 42% 0.0mm
03/12:00am WSW 10-16 kts 13.6°c 1021.2 hPa 40% 0.0mm